Time,TemperatureF,DewpointF,PressureIn,WindDirection,WindDirectionDegrees,WindSpeedMPH,WindSpeedGustMPH,Humidity,HourlyPrecipIn,Conditions,Clouds,dailyrainin,SoftwareType,DateUTC
2013-02-03 00:00:00,24.3,19.6,30.04,NW,312,0.0,8.0,82,0.00,,,0.00,Wunderground PWS Mod,2013-02-03 05:00:00,
2013-02-03 00:03:00,24.2,19.5,30.03,WNW,296,0.0,8.0,82,0.00,,,0.00,Wunderground PWS Mod,2013-02-03 05:03:00,
2013-02-03 00:04:00,24.2,19.5,30.03,NW,306,1.0,8.0,82,0.00,,,0.00,Wunderground PWS Mod,2013-02-03 05:04:00,
2013-02-03 00:05:00,24.2,19.5,30.03,NW,306,0.0,4.0,82,0.00,,,0.00,Wunderground PWS Mod,2013-02-03 05:05:00,
2013-02-03 00:11:00,24.0,19.3,30.03,NW,310,0.0,4.0,82,0.00,,,0.00,Wunderground PWS Mod,2013-02-03 05:11:00,
2013-02-03 00:14:00,23.8,19.7,30.02,NW,315,0.0,3.0,84,0.00,,,0.00,Wunderground PWS Mod,2013-02-03 05:14:00,
2013-02-03 00:16:00,24.0,19.6,30.03,NW,310,0.0,4.0,83,0.00,,,0.00,Wunderground PWS Mod,2013-02-03 05:16:00,
2013-02-03 00:22:00,23.9,19.5,30.02,NW,310,0.0,4.0,83,0.00,,,0.00,Wunderground PWS Mod,2013-02-03 05:22:00,
2013-02-03 00:27:00,23.8,19.4,30.02,NW,310,0.0,4.0,83,0.00,,,0.00,Wunderground PWS Mod,2013-02-03 05:27:00,
2013-02-03 00:32:00,23.8,19.7,30.02,NW,307,0.0,4.0,84,0.00,,,0.00,Wunderground PWS Mod,2013-02-03 05:32:00,
2013-02-03 00:37:00,23.8,19.7,30.02,NW,309,0.0,4.0,84,0.00,,,0.00,Wunderground PWS Mod,2013-02-03 05:37:00,
2013-02-03 00:43:00,23.7,19.6,30.01,NW,309,0.0,4.0,84,0.00,,,0.00,Wunderground PWS Mod,2013-02-03 05:43:00,
2013-02-03 00:48:00,23.6,19.5,30.01,NW,315,0.0,4.0,84,0.00,,,0.00,Wunderground PWS Mod,2013-02-03 05:48:00,
2013-02-03 00:53:00,23.6,19.5,30.01,NW,315,0.0,4.0,84,0.00,,,0.00,Wunderground PWS Mod,2013-02-03 05:53:00,
2013-02-03 00:58:00,23.6,19.5,30.00,NW,315,0.0,4.0,84,0.00,,,0.00,Wunderground PWS Mod,2013-02-03 05:58:00,
2013-02-03 01:04:00,23.5,19.4,30.00,NW,315,0.0,4.0,84,0.00,,,0.00,Wunderground PWS Mod,2013-02-03 06:04:00,
2013-02-03 01:10:00,23.5,19.4,30.00,NW,315,0.0,4.0,84,0.00,,,0.00,Wunderground PWS Mod,2013-02-03 06:10:00,
2013-02-03 01:15:00,23.4,19.3,30.00,NW,315,0.0,4.0,84,0.00,,,0.00,Wunderground PWS Mod,2013-02-03 06:15:00,
2013-02-03 01:20:00,23.4,19.3,30.00,NW,315,0.0,4.0,84,0.00,,,0.00,Wunderground PWS Mod,2013-02-03 06:20:00,
2013-02-03 01:25:00,23.3,19.5,30.00,NW,315,0.0,4.0,85,0.00,,,0.00,Wunderground PWS Mod,2013-02-03 06:25:00,
2013-02-03 01:30:00,23.3,19.5,29.99,NW,315,0.0,4.0,85,0.00,,,0.00,Wunderground PWS Mod,2013-02-03 06:30:00,
2013-02-03 01:36:00,23.3,19.5,29.99,NW,313,0.0,4.0,85,0.00,,,0.00,Wunderground PWS Mod,2013-02-03 06:36:00,
2013-02-03 01:41:00,23.3,19.5,30.00,NW,313,0.0,4.0,85,0.00,,,0.00,Wunderground PWS Mod,2013-02-03 06:41:00,
2013-02-03 01:47:00,23.2,19.1,30.00,NW,313,0.0,4.0,84,0.00,,,0.00,Wunderground PWS Mod,2013-02-03 06:47:00,
2013-02-03 01:52:00,23.2,19.1,30.00,NW,313,0.0,4.0,84,0.00,,,0.00,Wunderground PWS Mod,2013-02-03 06:52:00,
2013-02-03 01:57:00,23.2,19.1,30.00,WNW,300,0.0,4.0,84,0.00,,,0.00,Wunderground PWS Mod,2013-02-03 06:57:00,
2013-02-03 02:02:00,23.3,19.2,30.00,WNW,296,0.0,4.0,84,0.00,,,0.00,Wunderground PWS Mod,2013-02-03 07:02:00,
2013-02-03 02:07:00,23.2,19.1,30.00,WNW,297,0.0,4.0,84,0.00,,,0.00,Wunderground PWS Mod,2013-02-03 07:07:00,
2013-02-03 02:13:00,23.2,19.1,29.99,WNW,298,0.0,4.0,84,0.00,,,0.00,Wunderground PWS Mod,2013-02-03 07:13:00,
2013-02-03 02:18:00,23.1,19.0,29.99,WNW,298,0.0,4.0,84,0.00,,,0.00,Wunderground PWS Mod,2013-02-03 07:18:00,
2013-02-03 02:23:00,23.0,18.9,29.98,WNW,298,0.0,4.0,84,0.00,,,0.00,Wunderground PWS Mod,2013-02-03 07:23:00,
2013-02-03 02:29:00,22.9,19.1,29.98,WNW,302,0.0,4.0,85,0.00,,,0.00,Wunderground PWS Mod,2013-02-03 07:29:00,
2013-02-03 02:34:00,22.8,18.7,29.98,WNW,302,0.0,4.0,84,0.00,,,0.00,Wunderground PWS Mod,2013-02-03 07:34:00,
2013-02-03 02:40:00,22.7,18.9,29.98,WNW,302,0.0,4.0,85,0.00,,,0.00,Wunderground PWS Mod,2013-02-03 07:40:00,
2013-02-03 02:45:00,22.7,18.9,29.97,WNW,302,0.0,4.0,85,0.00,,,0.00,Wunderground PWS Mod,2013-02-03 07:45:00,
2013-02-03 02:51:00,22.6,18.8,29.97,WNW,303,0.0,4.0,85,0.00,,,0.00,Wunderground PWS Mod,2013-02-03 07:51:00,
2013-02-03 02:57:00,22.5,18.7,29.97,WNW,303,0.0,4.0,85,0.00,,,0.00,Wunderground PWS Mod,2013-02-03 07:57:00,
2013-02-03 03:02:00,22.4,18.6,29.97,WNW,303,0.0,4.0,85,0.00,,,0.00,Wunderground PWS Mod,2013-02-03 08:02:00,
2013-02-03 03:07:00,22.4,18.8,29.97,WNW,303,0.0,4.0,86,0.00,,,0.00,Wunderground PWS Mod,2013-02-03 08:07:00,
2013-02-03 03:13:00,22.3,18.5,29.96,WNW,303,0.0,4.0,85,0.00,,,0.00,Wunderground PWS Mod,2013-02-03 08:13:00,
2013-02-03 03:18:00,22.2,18.7,29.96,WNW,303,0.0,4.0,86,0.00,,,0.00,Wunderground PWS Mod,2013-02-03 08:18:00,
2013-02-03 03:23:00,22.1,18.6,29.96,WNW,303,0.0,4.0,86,0.00,,,0.00,Wunderground PWS Mod,2013-02-03 08:23:00,
2013-02-03 03:29:00,22.0,18.5,29.96,WNW,303,0.0,4.0,86,0.00,,,0.00,Wunderground PWS Mod,2013-02-03 08:29:00,
2013-02-03 03:35:00,22.0,18.7,29.95,WNW,303,0.0,4.0,87,0.00,,,0.00,Wunderground PWS Mod,2013-02-03 08:35:00,
2013-02-03 03:40:00,21.9,18.6,29.96,WNW,303,0.0,4.0,87,0.00,,,0.00,Wunderground PWS Mod,2013-02-03 08:40:00,
2013-02-03 03:45:00,21.9,18.6,29.95,WNW,303,0.0,4.0,87,0.00,,,0.00,Wunderground PWS Mod,2013-02-03 08:45:00,
2013-02-03 03:50:00,21.8,18.5,29.95,WNW,303,0.0,4.0,87,0.00,,,0.00,Wunderground PWS Mod,2013-02-03 08:50:00,
2013-02-03 03:55:00,21.8,18.5,29.95,WNW,303,0.0,4.0,87,0.00,,,0.00,Wunderground PWS Mod,2013-02-03 08:55:00,
2013-02-03 04:01:00,21.8,18.5,29.95,WNW,303,0.0,4.0,87,0.00,,,0.00,Wunderground PWS Mod,2013-02-03 09:01:00,
2013-02-03 04:07:00,21.7,18.4,29.95,WNW,303,0.0,0.0,87,0.00,,,0.00,Wunderground PWS Mod,2013-02-03 09:07:00,
2013-02-03 04:12:00,21.7,18.4,29.95,WNW,303,0.0,0.0,87,0.00,,,0.00,Wunderground PWS Mod,2013-02-03 09:12:00,
2013-02-03 04:14:00,21.7,18.4,29.95,N/A,-737280,0.0,0.0,87,0.00,,,0.00,Wunderground PWS Mod,2013-02-03 09:14:00,
2013-02-03 04:17:00,21.7,18.4,29.95,WNW,303,0.0,0.0,87,0.00,,,0.00,Wunderground PWS Mod,2013-02-03 09:17:00,
2013-02-03 04:23:00,21.6,18.3,29.95,WNW,303,0.0,0.0,87,0.00,,,0.00,Wunderground PWS Mod,2013-02-03 09:23:00,
2013-02-03 04:28:00,21.5,18.2,29.95,WNW,303,0.0,0.0,87,0.00,,,0.00,Wunderground PWS Mod,2013-02-03 09:28:00,
2013-02-03 04:33:00,21.4,18.1,29.95,WNW,303,0.0,0.0,87,0.00,,,0.00,Wunderground PWS Mod,2013-02-03 09:33:00,
2013-02-03 04:38:00,21.3,18.0,29.95,WNW,303,0.0,0.0,87,0.00,,,0.00,Wunderground PWS Mod,2013-02-03 09:38:00,
2013-02-03 04:43:00,21.2,17.9,29.95,WNW,303,0.0,0.0,87,0.00,,,0.00,Wunderground PWS Mod,2013-02-03 09:43:00,
2013-02-03 04:49:00,21.1,17.8,29.94,WNW,303,0.0,0.0,87,0.00,,,0.00,Wunderground PWS Mod,2013-02-03 09:49:00,
2013-02-03 04:55:00,21.0,17.5,29.94,WNW,303,0.0,0.0,86,0.00,,,0.00,Wunderground PWS Mod,2013-02-03 09:55:00,
2013-02-03 05:00:00,20.9,17.4,29.94,WNW,303,0.0,0.0,86,0.00,,,0.00,Wunderground PWS Mod,2013-02-03 10:00:00,
2013-02-03 05:05:00,20.9,17.4,29.94,WNW,303,0.0,0.0,86,0.00,,,0.00,Wunderground PWS Mod,2013-02-03 10:05:00,
2013-02-03 05:11:00,20.8,17.3,29.94,WNW,303,0.0,0.0,86,0.00,,,0.00,Wunderground PWS Mod,2013-02-03 10:11:00,
2013-02-03 05:17:00,20.8,17.5,29.93,WNW,303,0.0,0.0,87,0.00,,,0.00,Wunderground PWS Mod,2013-02-03 10:17:00,
2013-02-03 05:22:00,20.7,17.4,29.93,NW,304,0.0,0.0,87,0.00,,,0.00,Wunderground PWS Mod,2013-02-03 10:22:00,
2013-02-03 05:27:00,20.7,17.4,29.93,NW,304,0.0,0.0,87,0.00,,,0.00,Wunderground PWS Mod,2013-02-03 10:27:00,
2013-02-03 05:32:00,20.7,17.4,29.92,NW,304,0.0,0.0,87,0.00,,,0.00,Wunderground PWS Mod,2013-02-03 10:32:00,
2013-02-03 05:37:00,20.6,17.3,29.92,NW,304,0.0,0.0,87,0.00,,,0.00,Wunderground PWS Mod,2013-02-03 10:37:00,
2013-02-03 05:43:00,20.5,17.2,29.91,NW,304,0.0,0.0,87,0.00,,,0.00,Wunderground PWS Mod,2013-02-03 10:43:00,
2013-02-03 05:48:00,20.4,17.1,29.91,NW,304,0.0,0.0,87,0.00,,,0.00,Wunderground PWS Mod,2013-02-03 10:48:00,
2013-02-03 05:53:00,20.3,17.0,29.91,NW,305,0.0,0.0,87,0.00,,,0.00,Wunderground PWS Mod,2013-02-03 10:53:00,
2013-02-03 05:59:00,20.2,17.2,29.91,NW,305,0.0,0.0,88,0.00,,,0.00,Wunderground PWS Mod,2013-02-03 10:59:00,
2013-02-03 06:05:00,20.0,17.0,29.91,NW,316,0.0,0.0,88,0.00,,,0.00,Wunderground PWS Mod,2013-02-03 11:05:00,
2013-02-03 06:10:00,20.1,17.1,29.91,NW,316,0.0,2.0,88,0.00,,,0.00,Wunderground PWS Mod,2013-02-03 11:10:00,
2013-02-03 06:15:00,20.0,17.0,29.91,NW,317,0.0,0.0,88,0.00,,,0.00,Wunderground PWS Mod,2013-02-03 11:15:00,
2013-02-03 06:20:00,20.0,17.0,29.91,NW,317,0.0,0.0,88,0.00,,,0.00,Wunderground PWS Mod,2013-02-03 11:20:00,
2013-02-03 06:25:00,20.0,17.0,29.91,NW,317,0.0,0.0,88,0.00,,,0.00,Wunderground PWS Mod,2013-02-03 11:25:00,
2013-02-03 06:31:00,19.9,16.9,29.91,NW,317,0.0,0.0,88,0.00,,,0.00,Wunderground PWS Mod,2013-02-03 11:31:00,
2013-02-03 06:36:00,19.9,17.2,29.92,NW,317,0.0,0.0,89,0.00,,,0.00,Wunderground PWS Mod,2013-02-03 11:36:00,
2013-02-03 06:41:00,19.8,16.8,29.92,NW,317,0.0,0.0,88,0.00,,,0.00,Wunderground PWS Mod,2013-02-03 11:41:00,
2013-02-03 06:47:00,19.7,16.7,29.93,NW,317,0.0,0.0,88,0.00,,,0.00,Wunderground PWS Mod,2013-02-03 11:47:00,
2013-02-03 06:52:00,19.7,16.7,29.93,NW,317,0.0,0.0,88,0.00,,,0.00,Wunderground PWS Mod,2013-02-03 11:52:00,
2013-02-03 06:58:00,19.6,16.6,29.93,NW,317,0.0,0.0,88,0.00,,,0.00,Wunderground PWS Mod,2013-02-03 11:58:00,
2013-02-03 07:03:00,19.5,16.5,29.93,NW,317,0.0,0.0,88,0.00,,,0.00,Wunderground PWS Mod,2013-02-03 12:03:00,
2013-02-03 07:08:00,19.4,16.7,29.93,NW,317,0.0,0.0,89,0.00,,,0.00,Wunderground PWS Mod,2013-02-03 12:08:00,
2013-02-03 07:13:00,19.3,16.6,29.94,NW,317,0.0,0.0,89,0.00,,,0.00,Wunderground PWS Mod,2013-02-03 12:13:00,
2013-02-03 07:19:00,19.4,16.7,29.94,NW,317,0.0,0.0,89,0.00,,,0.00,Wunderground PWS Mod,2013-02-03 12:19:00,
2013-02-03 07:24:00,19.5,16.8,29.94,NW,317,0.0,0.0,89,0.00,,,0.00,Wunderground PWS Mod,2013-02-03 12:24:00,
2013-02-03 07:30:00,19.7,17.2,29.94,NW,317,0.0,0.0,90,0.00,,,0.00,Wunderground PWS Mod,2013-02-03 12:30:00,
2013-02-03 07:36:00,19.9,17.2,29.94,NW,317,0.0,0.0,89,0.00,,,0.00,Wunderground PWS Mod,2013-02-03 12:36:00,
2013-02-03 07:41:00,20.0,17.3,29.94,NW,317,0.0,0.0,89,0.00,,,0.00,Wunderground PWS Mod,2013-02-03 12:41:00,
2013-02-03 07:46:00,20.2,17.5,29.94,NW,317,0.0,0.0,89,0.00,,,0.00,Wunderground PWS Mod,2013-02-03 12:46:00,
2013-02-03 07:52:00,20.3,17.6,29.94,NW,317,0.0,0.0,89,0.00,,,0.00,Wunderground PWS Mod,2013-02-03 12:52:00,
2013-02-03 07:57:00,20.4,17.7,29.94,NW,317,0.0,0.0,89,0.00,,,0.00,Wunderground PWS Mod,2013-02-03 12:57:00,
2013-02-03 08:02:00,20.5,17.5,29.94,NW,317,0.0,0.0,88,0.00,,,0.00,Wunderground PWS Mod,2013-02-03 13:02:00,
2013-02-03 08:08:00,20.6,17.6,29.94,NW,317,0.0,0.0,88,0.00,,,0.00,Wunderground PWS Mod,2013-02-03 13:08:00,
2013-02-03 08:14:00,20.7,17.7,29.93,NW,317,0.0,0.0,88,0.00,,,0.00,Wunderground PWS Mod,2013-02-03 13:14:00,
2013-02-03 08:20:00,20.7,17.7,29.93,NW,317,0.0,0.0,88,0.00,,,0.00,Wunderground PWS Mod,2013-02-03 13:20:00,
2013-02-03 08:25:00,20.8,17.8,29.93,NW,317,0.0,0.0,88,0.00,,,0.00,Wunderground PWS Mod,2013-02-03 13:25:00,
2013-02-03 08:30:00,20.9,17.9,29.93,NW,317,0.0,0.0,88,0.00,,,0.00,Wunderground PWS Mod,2013-02-03 13:30:00,
2013-02-03 08:36:00,21.1,18.1,29.93,NW,317,0.0,0.0,88,0.00,,,0.00,Wunderground PWS Mod,2013-02-03 13:36:00,
2013-02-03 08:41:00,21.2,17.9,29.92,NNW,327,0.0,0.0,87,0.00,,,0.00,Wunderground PWS Mod,2013-02-03 13:41:00,
2013-02-03 08:47:00,21.3,18.0,29.92,ENE,60,0.0,0.0,87,0.00,,,0.00,Wunderground PWS Mod,2013-02-03 13:47:00,
2013-02-03 08:52:00,21.5,18.5,29.92,ENE,60,0.0,1.0,88,0.00,,,0.00,Wunderground PWS Mod,2013-02-03 13:52:00,
2013-02-03 08:57:00,21.7,18.4,29.92,ENE,65,0.0,0.0,87,0.00,,,0.00,Wunderground PWS Mod,2013-02-03 13:57:00,
2013-02-03 09:02:00,22.1,18.8,29.92,ENE,62,0.0,0.0,87,0.00,,,0.00,Wunderground PWS Mod,2013-02-03 14:02:00,
2013-02-03 09:08:00,22.5,18.7,29.92,ENE,71,1.0,2.0,85,0.00,,,0.00,Wunderground PWS Mod,2013-02-03 14:08:00,
2013-02-03 09:13:00,22.8,19.0,29.91,East,85,1.0,1.0,85,0.00,,,0.00,Wunderground PWS Mod,2013-02-03 14:13:00,
2013-02-03 09:18:00,23.1,19.0,29.91,NE,55,0.0,0.0,84,0.00,,,0.00,Wunderground PWS Mod,2013-02-03 14:18:00,
2013-02-03 09:24:00,23.7,19.6,29.91,East,80,0.0,0.0,84,0.00,,,0.00,Wunderground PWS Mod,2013-02-03 14:24:00,
2013-02-03 09:30:00,24.3,20.2,29.91,East,93,0.0,2.0,84,0.00,,,0.00,Wunderground PWS Mod,2013-02-03 14:30:00,
2013-02-03 09:35:00,24.3,19.3,29.90,East,95,1.0,3.0,81,0.00,,,0.00,Wunderground PWS Mod,2013-02-03 14:35:00,
2013-02-03 09:40:00,24.3,19.0,29.90,East,80,2.0,2.0,80,0.00,,,0.00,Wunderground PWS Mod,2013-02-03 14:40:00,
2013-02-03 09:46:00,24.3,19.0,29.90,ENE,78,1.0,1.0,80,0.00,,,0.00,Wunderground PWS Mod,2013-02-03 14:46:00,
2013-02-03 09:52:00,24.4,18.8,29.90,East,80,1.0,1.0,79,0.00,,,0.00,Wunderground PWS Mod,2013-02-03 14:52:00,
2013-02-03 09:57:00,24.6,19.0,29.90,East,90,0.0,0.0,79,0.00,,,0.00,Wunderground PWS Mod,2013-02-03 14:57:00,
2013-02-03 10:03:00,24.8,19.5,29.89,NE,55,0.0,0.0,80,0.00,,,0.00,Wunderground PWS Mod,2013-02-03 15:03:00,
2013-02-03 10:08:00,25.0,19.4,29.89,East,91,1.0,1.0,79,0.00,,,0.00,Wunderground PWS Mod,2013-02-03 15:08:00,
2013-02-03 10:13:00,25.2,19.3,29.89,East,95,1.0,1.0,78,0.00,,,0.00,Wunderground PWS Mod,2013-02-03 15:13:00,
2013-02-03 10:19:00,25.3,19.4,29.88,ENE,71,1.0,3.0,78,0.00,,,0.00,Wunderground PWS Mod,2013-02-03 15:19:00,
2013-02-03 10:24:00,25.6,20.0,29.88,ENE,74,0.0,0.0,79,0.00,,,0.00,Wunderground PWS Mod,2013-02-03 15:24:00,
2013-02-03 10:30:00,25.9,19.7,29.88,NE,36,0.0,0.0,77,0.00,,,0.00,Wunderground PWS Mod,2013-02-03 15:30:00,
2013-02-03 10:35:00,26.3,20.1,29.88,ESE,122,0.0,0.0,77,0.00,,,0.00,Wunderground PWS Mod,2013-02-03 15:35:00,
2013-02-03 10:40:00,26.6,20.1,29.88,North,11,0.0,3.0,76,0.00,,,0.00,Wunderground PWS Mod,2013-02-03 15:40:00,
2013-02-03 10:46:00,26.5,20.0,29.87,NE,53,1.0,1.0,76,0.00,,,0.00,Wunderground PWS Mod,2013-02-03 15:46:00,
2013-02-03 10:51:00,26.6,20.1,29.87,NNW,339,1.0,1.0,76,0.00,,,0.00,Wunderground PWS Mod,2013-02-03 15:51:00,
2013-02-03 10:56:00,27.0,20.4,29.87,NNW,348,1.0,1.0,76,0.00,,,0.00,Wunderground PWS Mod,2013-02-03 15:56:00,
2013-02-03 11:01:00,27.2,20.0,29.86,North,349,0.0,1.0,74,0.00,,,0.00,Wunderground PWS Mod,2013-02-03 16:01:00,
2013-02-03 11:06:00,27.4,20.2,29.86,ESE,104,0.0,0.0,74,0.00,,,0.00,Wunderground PWS Mod,2013-02-03 16:06:00,
2013-02-03 11:12:00,27.7,20.2,29.85,NNW,339,0.0,0.0,73,0.00,,,0.00,Wunderground PWS Mod,2013-02-03 16:12:00,
2013-02-03 11:17:00,27.8,19.9,29.85,North,350,0.0,3.0,72,0.00,,,0.00,Wunderground PWS Mod,2013-02-03 16:17:00,
2013-02-03 11:23:00,27.6,19.4,29.84,ENE,72,1.0,1.0,71,0.00,,,0.00,Wunderground PWS Mod,2013-02-03 16:23:00,
2013-02-03 11:28:00,27.7,19.5,29.84,NW,315,1.0,5.0,71,0.00,,,0.00,Wunderground PWS Mod,2013-02-03 16:28:00,
2013-02-03 11:33:00,27.4,19.2,29.84,NNE,26,2.0,2.0,71,0.00,,,0.00,Wunderground PWS Mod,2013-02-03 16:33:00,
2013-02-03 11:39:00,27.9,19.7,29.83,East,91,2.0,2.0,71,0.00,,,0.00,Wunderground PWS Mod,2013-02-03 16:39:00,
2013-02-03 11:44:00,28.1,19.6,29.82,NE,45,1.0,1.0,70,0.00,,,0.00,Wunderground PWS Mod,2013-02-03 16:44:00,
2013-02-03 11:50:00,28.4,19.2,29.82,NE,45,1.0,1.0,68,0.00,,,0.00,Wunderground PWS Mod,2013-02-03 16:50:00,
2013-02-03 11:55:00,28.5,19.3,29.82,East,96,1.0,1.0,68,0.00,,,0.00,Wunderground PWS Mod,2013-02-03 16:55:00,
2013-02-03 12:00:00,28.7,19.8,29.81,NNE,17,1.0,1.0,69,0.00,,,0.00,Wunderground PWS Mod,2013-02-03 17:00:00,
2013-02-03 12:05:00,29.0,19.1,29.81,North,5,1.0,5.0,66,0.00,,,0.00,Wunderground PWS Mod,2013-02-03 17:05:00,
2013-02-03 12:11:00,29.2,18.5,29.81,NNW,336,1.0,5.0,64,0.00,,,0.00,Wunderground PWS Mod,2013-02-03 17:11:00,
2013-02-03 12:14:00,28.9,19.3,29.81,NNW,338,1.0,5.0,67,0.00,,,0.00,Wunderground PWS Mod,2013-02-03 17:14:00,
2013-02-03 12:17:00,29.1,18.1,29.80,West,261,2.0,5.0,63,0.00,,,0.00,Wunderground PWS Mod,2013-02-03 17:17:00,
2013-02-03 12:22:00,29.4,18.3,29.80,NE,44,2.0,5.0,63,0.00,,,0.00,Wunderground PWS Mod,2013-02-03 17:22:00,
2013-02-03 12:27:00,29.6,18.5,29.80,WNW,291,1.0,5.0,63,0.00,,,0.00,Wunderground PWS Mod,2013-02-03 17:27:00,
2013-02-03 12:33:00,30.0,18.9,29.80,NNE,31,0.0,5.0,63,0.00,,,0.00,Wunderground PWS Mod,2013-02-03 17:33:00,
2013-02-03 12:38:00,30.5,18.3,29.79,NE,46,0.0,5.0,60,0.00,,,0.00,Wunderground PWS Mod,2013-02-03 17:38:00,
2013-02-03 12:43:00,30.5,18.6,29.79,NE,47,1.0,5.0,61,0.00,,,0.00,Wunderground PWS Mod,2013-02-03 17:43:00,
2013-02-03 12:48:00,30.4,18.9,29.78,ESE,105,1.0,5.0,62,0.00,,,0.00,Wunderground PWS Mod,2013-02-03 17:48:00,
2013-02-03 12:54:00,30.8,18.5,29.78,NNW,345,1.0,5.0,60,0.00,,,0.00,Wunderground PWS Mod,2013-02-03 17:54:00,
2013-02-03 13:00:00,31.1,18.4,29.78,NNW,330,1.0,5.0,59,0.00,,,0.00,Wunderground PWS Mod,2013-02-03 18:00:00,
2013-02-03 13:05:00,30.6,17.6,29.77,NE,51,2.0,5.0,58,0.00,,,0.00,Wunderground PWS Mod,2013-02-03 18:05:00,
2013-02-03 13:10:00,30.6,17.6,29.77,ENE,57,2.0,5.0,58,0.00,,,0.00,Wunderground PWS Mod,2013-02-03 18:10:00,
2013-02-03 13:15:00,30.5,17.9,29.77,North,360,1.0,5.0,59,0.00,,,0.00,Wunderground PWS Mod,2013-02-03 18:15:00,
2013-02-03 13:21:00,30.8,17.7,29.77,ENE,62,1.0,5.0,58,0.00,,,0.00,Wunderground PWS Mod,2013-02-03 18:21:00,
2013-02-03 13:26:00,31.1,18.4,29.77,East,84,1.0,5.0,59,0.00,,,0.00,Wunderground PWS Mod,2013-02-03 18:26:00,
2013-02-03 13:31:00,31.5,18.0,29.76,East,95,0.0,5.0,57,0.00,,,0.00,Wunderground PWS Mod,2013-02-03 18:31:00,
2013-02-03 13:36:00,31.4,17.9,29.76,NNW,345,0.0,5.0,57,0.00,,,0.00,Wunderground PWS Mod,2013-02-03 18:36:00,
2013-02-03 13:41:00,31.5,18.0,29.75,NE,46,0.0,5.0,57,0.00,,,0.00,Wunderground PWS Mod,2013-02-03 18:41:00,
2013-02-03 13:47:00,31.7,18.2,29.75,NNW,338,1.0,5.0,57,0.00,,,0.00,Wunderground PWS Mod,2013-02-03 18:47:00,
2013-02-03 13:53:00,31.2,17.7,29.75,North,360,2.0,5.0,57,0.00,,,0.00,Wunderground PWS Mod,2013-02-03 18:53:00,
2013-02-03 13:58:00,31.2,17.7,29.75,WNW,298,2.0,5.0,57,0.00,,,0.00,Wunderground PWS Mod,2013-02-03 18:58:00,
2013-02-03 14:04:00,31.7,18.2,29.75,NW,313,2.0,5.0,57,0.00,,,0.00,Wunderground PWS Mod,2013-02-03 19:04:00,
2013-02-03 14:10:00,31.8,17.5,29.75,NNW,340,1.0,5.0,55,0.00,,,0.00,Wunderground PWS Mod,2013-02-03 19:10:00,
2013-02-03 14:16:00,31.5,16.7,29.74,NNW,330,2.0,5.0,54,0.00,,,0.00,Wunderground PWS Mod,2013-02-03 19:16:00,
2013-02-03 14:21:00,31.3,16.6,29.75,NNE,24,1.0,5.0,54,0.00,,,0.00,Wunderground PWS Mod,2013-02-03 19:21:00,
2013-02-03 14:26:00,31.3,16.1,29.74,NW,324,1.0,5.0,53,0.00,,,0.00,Wunderground PWS Mod,2013-02-03 19:26:00,
2013-02-03 14:31:00,31.4,16.7,29.74,NE,39,2.0,5.0,54,0.00,,,0.00,Wunderground PWS Mod,2013-02-03 19:31:00,
2013-02-03 14:36:00,31.2,16.0,29.74,WNW,290,2.0,5.0,53,0.00,,,0.00,Wunderground PWS Mod,2013-02-03 19:36:00,
2013-02-03 14:42:00,31.4,16.2,29.74,NNW,329,2.0,5.0,53,0.00,,,0.00,Wunderground PWS Mod,2013-02-03 19:42:00,
2013-02-03 14:47:00,31.3,16.6,29.74,ENE,76,1.0,5.0,54,0.00,,,0.00,Wunderground PWS Mod,2013-02-03 19:47:00,
2013-02-03 14:52:00,31.4,17.5,29.74,NW,313,1.0,5.0,56,0.00,,,0.00,Wunderground PWS Mod,2013-02-03 19:52:00,
2013-02-03 14:57:00,31.6,17.3,29.74,NE,42,1.0,5.0,55,0.00,,,0.00,Wunderground PWS Mod,2013-02-03 19:57:00,
2013-02-03 15:02:00,31.7,17.4,29.74,NNW,346,0.0,5.0,55,0.00,,,0.00,Wunderground PWS Mod,2013-02-03 20:02:00,
2013-02-03 15:07:00,31.7,17.4,29.74,NW,323,1.0,5.0,55,0.00,,,0.00,Wunderground PWS Mod,2013-02-03 20:07:00,
2013-02-03 15:13:00,31.5,17.2,29.73,NNW,331,2.0,5.0,55,0.00,,,0.00,Wunderground PWS Mod,2013-02-03 20:13:00,
2013-02-03 15:18:00,31.4,17.1,29.73,North,5,2.0,5.0,55,0.00,,,0.00,Wunderground PWS Mod,2013-02-03 20:18:00,
2013-02-03 15:23:00,31.1,16.8,29.73,NNW,338,2.0,5.0,55,0.00,,,0.00,Wunderground PWS Mod,2013-02-03 20:23:00,
2013-02-03 15:29:00,31.1,16.8,29.73,NW,322,2.0,5.0,55,0.00,,,0.00,Wunderground PWS Mod,2013-02-03 20:29:00,
2013-02-03 15:34:00,31.2,16.5,29.73,NNE,12,2.0,5.0,54,0.00,,,0.00,Wunderground PWS Mod,2013-02-03 20:34:00,
2013-02-03 15:40:00,31.2,16.9,29.73,NE,43,1.0,5.0,55,0.00,,,0.00,Wunderground PWS Mod,2013-02-03 20:40:00,
2013-02-03 15:46:00,31.1,16.8,29.72,NW,325,2.0,5.0,55,0.00,,,0.00,Wunderground PWS Mod,2013-02-03 20:46:00,
2013-02-03 15:51:00,31.1,17.2,29.72,NNE,29,2.0,5.0,56,0.00,,,0.00,Wunderground PWS Mod,2013-02-03 20:51:00,
2013-02-03 15:56:00,31.1,17.2,29.72,NNW,339,1.0,5.0,56,0.00,,,0.00,Wunderground PWS Mod,2013-02-03 20:56:00,
2013-02-03 16:01:00,30.9,17.0,29.72,North,355,1.0,5.0,56,0.00,,,0.00,Wunderground PWS Mod,2013-02-03 21:01:00,
2013-02-03 16:07:00,30.8,16.9,29.72,NW,319,2.0,7.0,56,0.00,,,0.00,Wunderground PWS Mod,2013-02-03 21:07:00,
2013-02-03 16:12:00,30.9,17.0,29.71,NNE,31,1.0,7.0,56,0.00,,,0.00,Wunderground PWS Mod,2013-02-03 21:12:00,
2013-02-03 16:14:00,30.8,16.9,29.72,NW,315,2.0,7.0,56,0.00,,,0.00,Wunderground PWS Mod,2013-02-03 21:14:00,
2013-02-03 16:18:00,30.9,17.0,29.71,NNW,340,1.0,7.0,56,0.00,,,0.00,Wunderground PWS Mod,2013-02-03 21:18:00,
2013-02-03 16:23:00,30.9,17.0,29.71,ENE,63,1.0,7.0,56,0.00,,,0.00,Wunderground PWS Mod,2013-02-03 21:23:00,
2013-02-03 16:28:00,30.8,16.9,29.71,NE,46,0.0,7.0,56,0.00,,,0.00,Wunderground PWS Mod,2013-02-03 21:28:00,
2013-02-03 16:33:00,30.6,17.6,29.71,NE,42,0.0,7.0,58,0.00,,,0.00,Wunderground PWS Mod,2013-02-03 21:33:00,
2013-02-03 16:38:00,30.3,17.3,29.71,NE,38,0.0,7.0,58,0.00,,,0.00,Wunderground PWS Mod,2013-02-03 21:38:00,
2013-02-03 16:43:00,30.1,17.1,29.71,NNE,33,1.0,7.0,58,0.00,,,0.00,Wunderground PWS Mod,2013-02-03 21:43:00,
2013-02-03 16:49:00,29.9,17.3,29.71,NNE,33,0.0,7.0,59,0.00,,,0.00,Wunderground PWS Mod,2013-02-03 21:49:00,
2013-02-03 16:55:00,29.7,17.1,29.71,NNE,33,0.0,7.0,59,0.00,,,0.00,Wunderground PWS Mod,2013-02-03 21:55:00,
2013-02-03 17:00:00,29.6,17.4,29.71,NNE,33,0.0,7.0,60,0.00,,,0.00,Wunderground PWS Mod,2013-02-03 22:00:00,
2013-02-03 17:06:00,29.4,16.8,29.71,NE,34,0.0,7.0,59,0.00,,,0.00,Wunderground PWS Mod,2013-02-03 22:06:00,
2013-02-03 17:11:00,29.3,17.1,29.71,NE,34,0.0,7.0,60,0.00,,,0.00,Wunderground PWS Mod,2013-02-03 22:11:00,
2013-02-03 17:16:00,29.1,16.9,29.71,NE,34,0.0,7.0,60,0.00,,,0.00,Wunderground PWS Mod,2013-02-03 22:16:00,
2013-02-03 17:22:00,29.0,17.2,29.72,NNE,30,0.0,7.0,61,0.00,,,0.00,Wunderground PWS Mod,2013-02-03 22:22:00,
2013-02-03 17:27:00,28.8,17.0,29.72,NNE,27,0.0,7.0,61,0.00,,,0.00,Wunderground PWS Mod,2013-02-03 22:27:00,
2013-02-03 17:32:00,28.7,17.3,29.72,NNE,16,0.0,7.0,62,0.00,,,0.00,Wunderground PWS Mod,2013-02-03 22:32:00,
2013-02-03 17:37:00,28.7,17.3,29.72,NNE,16,0.0,7.0,62,0.00,,,0.00,Wunderground PWS Mod,2013-02-03 22:37:00,
2013-02-03 17:43:00,28.5,17.5,29.72,NNE,15,0.0,7.0,63,0.00,,,0.00,Wunderground PWS Mod,2013-02-03 22:43:00,
2013-02-03 17:48:00,28.4,17.4,29.72,NE,49,0.0,7.0,63,0.00,,,0.00,Wunderground PWS Mod,2013-02-03 22:48:00,
2013-02-03 17:53:00,28.3,17.3,29.73,NNW,329,0.0,7.0,63,0.00,,,0.00,Wunderground PWS Mod,2013-02-03 22:53:00,
2013-02-03 17:58:00,28.2,17.2,29.73,NW,323,1.0,7.0,63,0.00,,,0.00,Wunderground PWS Mod,2013-02-03 22:58:00,
2013-02-03 18:03:00,28.1,17.1,29.73,NW,323,1.0,7.0,63,0.00,,,0.00,Wunderground PWS Mod,2013-02-03 23:03:00,
2013-02-03 18:08:00,28.1,17.5,29.73,NW,323,1.0,7.0,64,0.00,,,0.00,Wunderground PWS Mod,2013-02-03 23:08:00,
2013-02-03 18:14:00,27.9,17.3,29.73,WNW,294,0.0,7.0,64,0.00,,,0.00,Wunderground PWS Mod,2013-02-03 23:14:00,
2013-02-03 18:20:00,27.9,17.3,29.74,NW,309,1.0,7.0,64,0.00,,,0.00,Wunderground PWS Mod,2013-02-03 23:20:00,
2013-02-03 18:25:00,27.8,17.2,29.74,NW,322,1.0,7.0,64,0.00,,,0.00,Wunderground PWS Mod,2013-02-03 23:25:00,
2013-02-03 18:31:00,27.7,17.1,29.74,NW,321,1.0,7.0,64,0.00,,,0.00,Wunderground PWS Mod,2013-02-03 23:31:00,
2013-02-03 18:36:00,27.6,17.0,29.74,NNE,12,0.0,7.0,64,0.00,,,0.00,Wunderground PWS Mod,2013-02-03 23:36:00,
2013-02-03 18:41:00,27.5,17.3,29.74,NNE,30,0.0,7.0,65,0.00,,,0.00,Wunderground PWS Mod,2013-02-03 23:41:00,
2013-02-03 18:47:00,27.4,17.2,29.74,NNE,30,0.0,7.0,65,0.00,,,0.00,Wunderground PWS Mod,2013-02-03 23:47:00,
2013-02-03 18:52:00,27.3,17.1,29.74,NNE,30,0.0,7.0,65,0.00,,,0.00,Wunderground PWS Mod,2013-02-03 23:52:00,
2013-02-03 18:57:00,27.2,17.3,29.74,NNE,30,0.0,7.0,66,0.00,,,0.00,Wunderground PWS Mod,2013-02-03 23:57:00,
2013-02-03 19:03:00,27.0,17.1,29.74,NNE,30,0.0,7.0,66,0.00,,,0.00,Wunderground PWS Mod,2013-02-04 00:03:00,
2013-02-03 19:09:00,26.9,17.4,29.74,NNE,30,0.0,7.0,67,0.00,,,0.00,Wunderground PWS Mod,2013-02-04 00:09:00,
2013-02-03 19:14:00,26.8,17.3,29.74,NNE,28,0.0,7.0,67,0.00,,,0.00,Wunderground PWS Mod,2013-02-04 00:14:00,
2013-02-03 19:20:00,26.7,17.2,29.73,NNE,28,0.0,7.0,67,0.00,,,0.00,Wunderground PWS Mod,2013-02-04 00:20:00,
2013-02-03 19:26:00,26.6,17.1,29.74,NNE,28,0.0,7.0,67,0.00,,,0.00,Wunderground PWS Mod,2013-02-04 00:26:00,
2013-02-03 19:31:00,26.5,17.0,29.73,NNE,28,0.0,7.0,67,0.00,,,0.00,Wunderground PWS Mod,2013-02-04 00:31:00,
2013-02-03 19:36:00,26.4,16.9,29.73,NNE,28,0.0,7.0,67,0.00,,,0.00,Wunderground PWS Mod,2013-02-04 00:36:00,
2013-02-03 19:42:00,26.2,17.1,29.73,NNE,28,0.0,7.0,68,0.00,,,0.00,Wunderground PWS Mod,2013-02-04 00:42:00,
2013-02-03 19:48:00,26.1,17.0,29.73,NNE,28,0.0,7.0,68,0.00,,,0.00,Wunderground PWS Mod,2013-02-04 00:48:00,
2013-02-03 19:53:00,26.0,17.2,29.73,NNE,28,0.0,7.0,69,0.00,,,0.00,Wunderground PWS Mod,2013-02-04 00:53:00,
2013-02-03 19:58:00,25.9,16.8,29.73,NNE,28,0.0,7.0,68,0.00,,,0.00,Wunderground PWS Mod,2013-02-04 00:58:00,
2013-02-03 20:03:00,25.8,17.0,29.73,NNE,28,0.0,7.0,69,0.00,,,0.00,Wunderground PWS Mod,2013-02-04 01:03:00,
2013-02-03 20:08:00,25.6,16.8,29.73,NNE,28,0.0,0.0,69,0.00,,,0.00,Wunderground PWS Mod,2013-02-04 01:08:00,
2013-02-03 20:14:00,25.4,17.0,29.73,NNE,28,0.0,0.0,70,0.00,,,0.00,Wunderground PWS Mod,2013-02-04 01:14:00,
2013-02-03 20:20:00,25.3,16.9,29.73,NNE,28,0.0,0.0,70,0.00,,,0.00,Wunderground PWS Mod,2013-02-04 01:20:00,
2013-02-03 20:25:00,25.3,16.9,29.73,NNE,28,0.0,0.0,70,0.00,,,0.00,Wunderground PWS Mod,2013-02-04 01:25:00,
2013-02-03 20:31:00,25.2,16.8,29.74,NNE,28,0.0,0.0,70,0.00,,,0.00,Wunderground PWS Mod,2013-02-04 01:31:00,
2013-02-03 20:36:00,25.2,17.1,29.74,NNE,28,0.0,0.0,71,0.00,,,0.00,Wunderground PWS Mod,2013-02-04 01:36:00,
2013-02-03 20:41:00,25.1,17.0,29.74,NNE,28,0.0,0.0,71,0.00,,,0.00,Wunderground PWS Mod,2013-02-04 01:41:00,
2013-02-03 20:46:00,25.1,17.0,29.74,NNE,28,0.0,0.0,71,0.00,,,0.00,Wunderground PWS Mod,2013-02-04 01:46:00,
2013-02-03 20:52:00,25.0,16.9,29.73,NNE,28,0.0,0.0,71,0.00,,,0.00,Wunderground PWS Mod,2013-02-04 01:52:00,
2013-02-03 20:58:00,24.9,16.8,29.74,NNE,26,0.0,0.0,71,0.00,,,0.00,Wunderground PWS Mod,2013-02-04 01:58:00,
2013-02-03 21:03:00,24.8,17.1,29.74,NNE,26,0.0,0.0,72,0.00,,,0.00,Wunderground PWS Mod,2013-02-04 02:03:00,
2013-02-03 21:08:00,24.8,17.1,29.73,NNE,26,0.0,0.0,72,0.00,,,0.00,Wunderground PWS Mod,2013-02-04 02:08:00,
2013-02-03 21:15:00,24.7,17.0,29.73,NNE,26,0.0,0.0,72,0.00,,,0.00,Wunderground PWS Mod,2013-02-04 02:15:00,
2013-02-03 21:20:00,24.7,17.0,29.73,NNE,26,0.0,0.0,72,0.00,,,0.00,Wunderground PWS Mod,2013-02-04 02:20:00,
2013-02-03 21:25:00,24.7,17.3,29.73,NNE,26,0.0,0.0,73,0.00,,,0.00,Wunderground PWS Mod,2013-02-04 02:25:00,
2013-02-03 21:30:00,24.6,17.2,29.73,NNE,26,0.0,0.0,73,0.00,,,0.00,Wunderground PWS Mod,2013-02-04 02:30:00,
2013-02-03 21:35:00,24.5,17.1,29.73,NNE,26,0.0,0.0,73,0.00,,,0.00,Wunderground PWS Mod,2013-02-04 02:35:00,
2013-02-03 21:41:00,24.3,16.9,29.73,North,360,0.0,0.0,73,0.00,,,0.00,Wunderground PWS Mod,2013-02-04 02:41:00,
2013-02-03 21:46:00,24.3,16.9,29.73,NNW,348,0.0,0.0,73,0.00,,,0.00,Wunderground PWS Mod,2013-02-04 02:46:00,
2013-02-03 21:51:00,24.2,16.8,29.73,NNW,348,0.0,0.0,73,0.00,,,0.00,Wunderground PWS Mod,2013-02-04 02:51:00,
2013-02-03 21:56:00,24.2,16.8,29.73,NNW,348,0.0,0.0,73,0.00,,,0.00,Wunderground PWS Mod,2013-02-04 02:56:00,
2013-02-03 22:01:00,24.2,16.8,29.73,NNW,348,0.0,0.0,73,0.00,,,0.00,Wunderground PWS Mod,2013-02-04 03:01:00,
2013-02-03 22:07:00,24.1,16.7,29.73,NNW,346,0.0,0.0,73,0.00,,,0.00,Wunderground PWS Mod,2013-02-04 03:07:00,
2013-02-03 22:12:00,24.2,16.8,29.73,NNW,342,1.0,1.0,73,0.00,,,0.00,Wunderground PWS Mod,2013-02-04 03:12:00,
2013-02-03 22:18:00,24.1,16.7,29.74,NNW,338,1.0,1.0,73,0.00,,,0.00,Wunderground PWS Mod,2013-02-04 03:18:00,
2013-02-03 22:23:00,23.9,16.5,29.74,NNW,336,1.0,1.0,73,0.00,,,0.00,Wunderground PWS Mod,2013-02-04 03:23:00,
2013-02-03 22:29:00,23.8,16.7,29.74,NNW,332,1.0,1.0,74,0.00,,,0.00,Wunderground PWS Mod,2013-02-04 03:29:00,
2013-02-03 22:35:00,23.6,16.5,29.74,NNW,329,2.0,2.0,74,0.00,,,0.00,Wunderground PWS Mod,2013-02-04 03:35:00,
2013-02-03 22:40:00,23.6,16.2,29.74,NW,314,2.0,2.0,73,0.00,,,0.00,Wunderground PWS Mod,2013-02-04 03:40:00,
2013-02-03 22:46:00,23.6,16.2,29.74,NW,313,2.0,2.0,73,0.00,,,0.00,Wunderground PWS Mod,2013-02-04 03:46:00,
2013-02-03 22:51:00,23.4,16.3,29.74,NW,313,2.0,2.0,74,0.00,,,0.00,Wunderground PWS Mod,2013-02-04 03:51:00,
2013-02-03 22:56:00,23.2,16.1,29.73,NW,313,1.0,2.0,74,0.00,,,0.00,Wunderground PWS Mod,2013-02-04 03:56:00,
2013-02-03 23:01:00,23.1,16.0,29.73,NW,313,1.0,1.0,74,0.00,,,0.00,Wunderground PWS Mod,2013-02-04 04:01:00,
2013-02-03 23:07:00,23.0,15.9,29.73,NW,313,1.0,1.0,74,0.00,,,0.00,Wunderground PWS Mod,2013-02-04 04:07:00,
2013-02-03 23:12:00,22.9,16.2,29.73,NW,313,1.0,1.0,75,0.00,,,0.00,Wunderground PWS Mod,2013-02-04 04:12:00,
2013-02-03 23:17:00,22.9,15.8,29.73,NW,313,1.0,2.0,74,0.00,,,0.00,Wunderground PWS Mod,2013-02-04 04:17:00,
2013-02-03 23:23:00,23.0,15.9,29.73,NW,312,2.0,3.0,74,0.00,,,0.00,Wunderground PWS Mod,2013-02-04 04:23:00,
2013-02-03 23:28:00,23.0,15.9,29.73,NW,312,1.0,1.0,74,0.00,,,0.00,Wunderground PWS Mod,2013-02-04 04:28:00,
2013-02-03 23:33:00,23.0,15.9,29.73,NW,309,2.0,2.0,74,0.00,,,0.00,Wunderground PWS Mod,2013-02-04 04:33:00,
2013-02-03 23:38:00,22.9,15.8,29.74,NW,306,2.0,2.0,74,0.00,,,0.00,Wunderground PWS Mod,2013-02-04 04:38:00,
2013-02-03 23:44:00,22.8,16.1,29.74,NW,306,2.0,2.0,75,0.00,,,0.00,Wunderground PWS Mod,2013-02-04 04:44:00,
2013-02-03 23:50:00,22.7,16.0,29.74,NW,304,2.0,2.0,75,0.00,,,0.00,Wunderground PWS Mod,2013-02-04 04:50:00,
2013-02-03 23:55:00,22.7,16.0,29.74,WNW,296,2.0,3.0,75,0.00,,,0.00,Wunderground PWS Mod,2013-02-04 04:55:00,